This demonstration page uses our WeatherBlox Daily Observations layout. Learn more.

Left ArrowRight Arrow

39.01783, -85.05884

Hourly Observations for August 31, 2015

Temp ( °F °C ) Dew Point ( °F °C ) Humidity (%) Winds ( mph kmh ) Pressure ( in mb ) Visibility ( mi km ) Precip ( " mm )
12:52 am 00:52 Partly Cloudy 70 21.1 67 19.4 90 90 S 5 7 30.06 1018 10 16.0934 N/A
1:52 am 01:52 Mostly Clear 70 21.1 66 18.9 87 87 SSW 3 6 30.06 1018 10 16.0934 N/A
2:52 am 02:52 Mostly Clear 69 20.6 66 18.9 90 90 SW 3 6 30.06 1018 10 16.0934 N/A
3:52 am 03:52 Partly Cloudy 69 20.6 66 18.9 90 90 N N/A 30.05 1018 9 14.48406 N/A
4:52 am 04:52 Mostly Clear 67 19.4 66 18.9 97 97 N N/A 30.05 1018 8 12.87472 N/A
5:52 am 05:52 Clear 67 19.4 65 18.3 93 93 N N/A 30.06 1018 8 12.87472 N/A
6:52 am 06:52 Mostly Clear with Mist and Fog 65 18.3 64 17.8 97 97 S 3 6 30.08 1019 6 9.65604 N/A
7:52 am 07:52 Mostly Sunny 67 19.4 65 18.3 93 93 SW 3 6 30.1 1019 7 11.26538 N/A
8:52 am 08:52 Mostly Cloudy 70 21.1 67 19.4 90 90 SW 5 7 30.11 1020 10 16.0934 N/A
9:52 am 09:52 Mostly Sunny 76 24.4 67 19.4 74 74 W 8 13 30.12 1020 10 16.0934 N/A
10:52 am 10:52 Mostly Sunny 79 26.1 68 20 69 69 W 8 13 30.13 1020 10 16.0934 N/A
11:52 am 11:52 Mostly Sunny 82 27.8 68 20 63 63 VRB 5 7 30.12 1020 10 16.0934 N/A
12:52 pm 12:52 Partly Cloudy 84 28.9 64 17.8 51 51 W 7 11 30.11 1020 10 16.0934 N/A
1:52 pm 13:52 Partly Cloudy 85 29.4 67 19.4 55 55 WSW 7 11 30.09 1019 10 16.0934 N/A
2:52 pm 14:52 Mostly Sunny 86 30 64 17.8 48 48 WSW 8 13 30.08 1019 10 16.0934 N/A
3:52 pm 15:52 Partly Cloudy 85 29.4 65 18.3 51 51 SSW 6 9 30.06 1018 10 16.0934 N/A
4:52 pm 16:52 Partly Cloudy 85 29.4 66 18.9 53 53 SSW 7 11 30.04 1017 10 16.0934 N/A
5:52 pm 17:52 Partly Cloudy 86 30 65 18.3 49 49 W 7 11 30.04 1017 10 16.0934 N/A
6:52 pm 18:52 Partly Cloudy 84 28.9 65 18.3 53 53 WSW 7 11 30.04 1017 10 16.0934 N/A
7:52 pm 19:52 Partly Cloudy 82 27.8 65 18.3 56 56 SW 3 6 30.05 1018 10 16.0934 N/A
8:52 pm 20:52 Partly Cloudy 77 25 67 19.4 71 71 N N/A 30.06 1018 10 16.0934 N/A
9:52 pm 21:52 Mostly Clear 73 22.8 67 19.4 81 81 S 3 6 30.08 1019 10 16.0934 N/A
10:52 pm 22:52 Mostly Clear 73 22.8 67 19.4 81 81 N N/A 30.08 1019 10 16.0934 N/A
11:52 pm 23:52 Clear 72 22.2 66 18.9 82 82 N N/A 30.08 1019 10 16.0934 N/A

Powered by AerisWeather